[[{"header":{"parameterUnit":"m.s-1","parameterCategory":1,"la1":30.2991,"la2":30.254,"lo1":-89.0895,"lo2":-89.0444,"dy":0.0017,"dx":0.0017,"nx":28,"ny":28,"refTime":"2024-07-21T09:00:00:Z","depth":0,"parameterNumber":2,"parameterNumberName":"U-component_of_WINDS"},"data":[0,0,0,0,0,0,0,0,0,0,0,0,0,0,0,0,0,0,0,0,0,0,0,0,0,0,0,0,0,0,0,0,0,0,0,0,0,0,0,0,0,0,0,0,0,0,0,0,0,0,0,0,0,0,0,0,0,0,2.9309,2.931,0,2.936,2.9361,2.9361,2.9318,2.9317,2.9315,2.9313,2.9364,2.9367,2.937,0,0,0,0,0,0,0,0,0,0,0,0,0,2.9172,2.9174,2.9309,2.931,2.9311,2.936,2.9361,2.9361,2.9319,2.9316,2.9314,2.9312,2.9363,2.9367,2.9371,0,0,0,0,0,0,0,0,0,0,0,0,0,2.9228,2.9175,2.9309,2.9295,2.9294,2.936,2.9361,2.9362,2.9319,2.9316,2.9314,2.9311,2.9362,2.9367,2.9371,2.9453,0,0,2.9385,2.9387,0,0,0,0,0,0,0,0,2.9225,2.9233,2.9297,2.9296,2.9295,2.933,2.9331,2.9392,2.932,2.931,2.9313,2.931,2.9355,2.936,2.9375,2.9455,2.9458,2.9385,2.9388,2.939,2.9391,0,0,0,0,0,0,0,2.9221,2.923,2.9329,2.9297,2.9297,2.9285,2.929,2.9342,2.9347,2.931,2.9307,2.9314,2.9354,2.9371,2.9376,2.9458,2.9385,2.9389,2.9392,2.9394,2.9602,2.9605,0,0,0,0,0,0,2.9219,2.9228,2.9328,2.9331,2.9253,2.929,2.9295,2.9322,2.9346,2.9347,2.9316,2.9312,2.9365,2.9371,2.9378,2.9471,2.939,2.9394,2.9397,2.96,2.9603,2.9606,0,0,0,0,0,0,2.9216,2.9228,2.9326,2.9278,2.929,2.9295,2.9325,2.9324,2.9341,2.9351,2.9351,2.9333,2.9363,2.9372,2.9433,2.9472,2.9396,2.9401,2.9596,2.9601,2.9605,2.9661,0,0,0,0,0,0,2.9212,2.9227,2.9259,2.9279,2.9293,2.9381,2.9327,2.9327,2.9349,2.9344,2.9366,2.9367,2.9361,2.9427,2.9438,2.9477,2.9404,2.9593,2.9598,2.9603,2.9655,2.9666,2.9676,0,0,0,0,0,2.9207,2.9274,2.9261,2.9274,2.9333,2.9384,2.9391,2.9383,2.9353,2.9383,2.9389,2.9367,2.9467,2.9434,2.9446,2.9487,2.959,2.9597,2.9603,2.9651,2.9664,2.9675,0,0,0,0,0,0,2.9259,2.9277,2.9262,2.9338,2.936,2.9376,2.9416,2.9398,2.9429,2.9423,2.9412,2.9417,2.9481,2.9491,2.9453,2.9565,2.9523,2.9533,2.9556,2.9569,2.9579,2.9573,2.9408,0,0,0,0,0,2.9279,2.932,2.9333,2.9398,2.941,2.9411,2.9433,2.9425,2.9446,2.9455,2.9466,2.9487,2.9523,2.9547,2.9581,2.9658,2.9659,2.9692,2.9702,2.971,2.9717,2.9753,2.9766,2.9627,2.9627,2.9627,0,0,2.9322,2.9336,2.9362,2.9409,2.9425,2.9465,2.9419,2.9465,2.9494,2.9462,2.952,2.9528,2.9551,2.962,2.965,2.963,2.9756,2.9718,2.9725,2.9727,2.9761,2.9774,2.9786,2.9631,2.963,2.963,0,0,2.9418,2.9435,2.9488,2.9505,2.9528,2.9528,2.9541,2.9561,2.9564,2.9622,2.9598,2.9632,2.9696,2.9712,2.9728,2.9827,2.9806,2.9839,2.9891,2.9927,2.9938,2.9947,2.9978,2.999,2.9847,2.9847,2.9847,0,2.9467,2.9527,2.9518,2.9564,2.9583,2.9557,2.9609,2.9626,2.966,2.9673,2.965,2.9726,2.974,2.9809,2.9833,2.9849,2.986,2.9835,2.9937,2.9946,2.9955,2.9984,2.9997,2.985,2.985,2.985,2.9849,0,2.9583,2.9626,2.9666,2.9698,2.9722,2.9772,2.9768,2.9794,2.9784,2.9785,2.9842,2.9858,2.9893,2.9909,2.9901,2.9976,2.9962,2.9939,2.9896,2.9972,2.9999,3.0011,2.9855,2.9854,2.9853,2.9852,0,0,2.9713,2.9738,2.9752,2.9764,2.9788,2.9819,2.9867,2.99,2.992,2.9944,2.9981,3.0034,3.0011,3.0029,3.0022,3.0054,3.0125,3.0025,3.0026,3.004,3.0205,3.0219,3.0233,3.0113,3.0115,3.0117,3.0201,0,2.9806,2.9887,2.9879,2.9956,2.9992,2.9966,3.0006,3.0024,3.0027,3.0057,3.0061,3.0096,3.0066,3.0076,3.0107,3.011,3.0158,3.0105,3.0144,3.0145,3.0135,3.0248,3.0264,3.0343,3.0212,3.0214,3.0216,0,2.9926,2.9952,3.0032,3.0046,3.0061,3.0097,3.0124,3.0155,3.0174,3.0173,3.0193,3.0179,3.0224,3.0183,3.0242,3.0206,3.0222,3.0226,3.0229,3.0229,3.0182,3.0247,3.0368,3.0379,3.0233,3.0232,3.023,0,3.0006,3.0062,3.0115,3.0128,3.0147,3.0172,3.0181,3.0197,3.0216,3.0241,3.0252,3.0282,3.0298,3.032,3.0314,3.0286,3.0373,3.0333,3.0371,3.0371,3.0388,3.0387,3.051,3.0406,3.0406,3.0405,3.0405,0,3.0109,3.0157,3.0151,3.0184,3.0236,3.0226,3.0278,3.0284,3.0298,3.033,3.0311,3.0341,3.0333,3.0362,3.0358,3.0405,3.0413,3.0412,3.0409,3.0411,3.0411,3.0419,3.0411,3.0409,3.0408,3.0407,3.0407,0,3.0206,3.0205,3.026,3.0273,3.0277,3.0315,3.0325,3.0355,3.0356,3.0396,3.0404,3.0406,3.0439,3.0435,3.0473,3.047,3.0527,3.0521,3.052,3.0517,3.0554,3.0549,3.0684,3.0699,3.0589,3.059,3.0591,0,3.027,3.0306,3.0322,3.0341,3.0351,3.0384,3.0403,3.0394,3.0414,3.0436,3.0462,3.0494,3.0518,3.0571,3.0575,3.0603,3.0594,3.0639,3.0597,3.0597,3.0589,3.0585,3.0586,3.0646,3.0647,3.0648,3.0649,0,3.0381,3.0378,3.0405,3.0432,3.0455,3.0476,3.0494,3.0511,3.0504,3.0528,3.0561,3.0579,3.0616,3.0646,3.0672,3.068,3.0662,3.0662,3.0672,3.0672,3.0668,3.0666,3.0538,3.0658,3.0657,3.0657,3.0656,3.0656,3.046,3.0489,3.0504,3.0534,3.0547,3.0565,3.0591,3.0595,3.0622,3.0651,3.0645,3.0681,3.0695,3.0728,3.0739,3.0766,3.0749,3.0764,3.0767,3.077,3.0772,3.0667,3.0771,3.0771,3.077,3.077,3.077,0,3.0566,3.0574,3.0602,3.0628,3.0651,3.0633,3.0652,3.0672,3.0704,3.072,3.0743,3.0779,3.0807,3.0813,3.0839,3.0859,3.0851,3.0866,3.0862,3.0864,3.0788,3.0774,3.0872,3.0872,3.0872,3.0872,3.0871,3.0871,3.0624,3.0671,3.0669,3.0721,3.0728,3.0762,3.0774,3.0789,3.0801,3.0841,3.0864,3.0868,3.0878,3.0904,3.0929,3.0929,3.0938,3.0955,3.0952,3.088,3.087,3.086,3.0847,3.0958,3.0958,3.1025,3.1026,3.1026]},{"header":{"parameterUnit":"m.s-1","parameterCategory":1,"la1":30.2991,"la2":30.254,"lo1":-89.0895,"lo2":-89.0444,"dy":0.0017,"dx":0.0017,"nx":28,"ny":28,"refTime":"2024-07-21T09:00:00:Z","depth":0,"parameterNumber":3,"parameterNumberName":"V-component_of_WINDS"},"data":[0,0,0,0,0,0,0,0,0,0,0,0,0,0,0,0,0,0,0,0,0,0,0,0,0,0,0,0,0,0,0,0,0,0,0,0,0,0,0,0,0,0,0,0,0,0,0,0,0,0,0,0,0,0,0,0,0,0,3.4236,3.4237,0,3.4367,3.4369,3.437,3.4354,3.4352,3.435,3.4348,3.448,3.4486,3.4491,0,0,0,0,0,0,0,0,0,0,0,0,0,3.3966,3.3971,3.4236,3.4237,3.4239,3.4367,3.4369,3.4371,3.4355,3.4352,3.435,3.4347,3.4479,3.4485,3.4492,0,0,0,0,0,0,0,0,0,0,0,0,0,3.4089,3.3972,3.4235,3.4246,3.4249,3.4367,3.4369,3.4371,3.4355,3.4352,3.4349,3.4346,3.4476,3.4484,3.4493,3.4607,0,0,3.4518,3.4521,0,0,0,0,0,0,0,0,3.4082,3.4099,3.4243,3.4246,3.4249,3.4341,3.4322,3.445,3.4356,3.4315,3.4348,3.4344,3.4436,3.4448,3.4479,3.4613,3.4619,3.4518,3.4523,3.4527,3.4529,0,0,0,0,0,0,0,3.4073,3.4093,3.4288,3.4245,3.4249,3.4243,3.4257,3.4346,3.4392,3.4318,3.4317,3.4333,3.4437,3.4471,3.4482,3.4621,3.4518,3.4526,3.4531,3.4534,3.4852,3.4855,0,0,0,0,0,0,3.4062,3.4086,3.4283,3.4292,3.4156,3.4251,3.4266,3.4315,3.4391,3.4399,3.4336,3.4332,3.4459,3.4473,3.4487,3.4624,3.4527,3.4535,3.4539,3.4849,3.4853,3.4857,0,0,0,0,0,0,3.4057,3.408,3.4278,3.4189,3.4213,3.4259,3.4313,3.4319,3.4353,3.4404,3.4412,3.4363,3.4457,3.4475,3.4577,3.4629,3.4538,3.4546,3.4845,3.485,3.4855,3.4901,0,0,0,0,0,0,3.4049,3.4078,3.4124,3.419,3.4218,3.4368,3.4316,3.4324,3.4368,3.4364,3.4431,3.444,3.4456,3.4565,3.4585,3.4638,3.4552,3.484,3.4847,3.4853,3.4895,3.4907,3.4917,0,0,0,0,0,3.4039,3.4131,3.4126,3.415,3.4276,3.4371,3.4387,3.4405,3.4372,3.4417,3.4449,3.4437,3.462,3.4575,3.4598,3.4655,3.4837,3.4845,3.4853,3.489,3.4905,3.4917,0,0,0,0,0,0,3.407,3.414,3.4135,3.4252,3.4305,3.4368,3.4425,3.442,3.4483,3.4477,3.4496,3.4511,3.4613,3.4644,3.4593,3.4768,3.4724,3.4736,3.4744,3.4759,3.477,3.476,3.4559,0,0,0,0,0,3.409,3.4162,3.4219,3.4316,3.4344,3.438,3.4422,3.4431,3.4486,3.4509,3.4549,3.4603,3.4671,3.4717,3.4784,3.4899,3.4912,3.4949,3.496,3.4969,3.498,3.5041,3.5057,3.4883,3.4883,3.4882,0,0,3.4133,3.418,3.4225,3.4324,3.4366,3.4439,3.4399,3.4478,3.4531,3.4521,3.4619,3.465,3.4711,3.4819,3.4869,3.4848,3.5031,3.4979,3.4986,3.4992,3.5051,3.5067,3.5082,3.4888,3.4887,3.4886,0,0,3.4247,3.4291,3.4376,3.4419,3.4484,3.4507,3.4527,3.459,3.461,3.4709,3.4702,3.4765,3.4884,3.4927,3.4965,3.5092,3.5083,3.5114,3.5172,3.5231,3.5245,3.5257,3.5301,3.5317,3.5124,3.5124,3.5124,0,3.4292,3.4402,3.442,3.4499,3.4542,3.4535,3.462,3.4661,3.4744,3.4773,3.4748,3.4896,3.4937,3.5054,3.5085,3.5116,3.5138,3.5106,3.5242,3.5254,3.5266,3.5308,3.5324,3.5127,3.5127,3.5127,3.5126,0,3.4453,3.4529,3.4589,3.467,3.4719,3.4801,3.4829,3.4876,3.488,3.4905,3.5004,3.5053,3.5128,3.5156,3.5161,3.5273,3.5258,3.5238,3.5194,3.5285,3.5325,3.5341,3.5132,3.5131,3.513,3.5129,0,0,3.4591,3.4679,3.4701,3.4736,3.4806,3.4864,3.4944,3.5018,3.5058,3.5115,3.5181,3.5281,3.5262,3.5304,3.5313,3.5365,3.5461,3.5338,3.534,3.5358,3.5585,3.5599,3.5618,3.5455,3.5458,3.5461,3.5579,0,3.4711,3.4854,3.4871,3.4997,3.5067,3.506,3.5129,3.5179,3.5204,3.5265,3.5291,3.5361,3.5332,3.5357,3.5408,3.5438,3.5506,3.543,3.5515,3.5518,3.5499,3.5639,3.5655,3.5765,3.5595,3.5598,3.56,0,3.4871,3.4932,3.5066,3.5124,3.5153,3.5216,3.5283,3.5342,3.5397,3.5411,3.5458,3.5459,3.554,3.5492,3.5602,3.555,3.5585,3.5605,3.5609,3.5617,3.5564,3.5649,3.58,3.5816,3.5624,3.5622,3.5621,0,3.4957,3.5072,3.5166,3.5197,3.5268,3.5311,3.5342,3.5394,3.5437,3.5495,3.5522,3.5589,3.5626,3.5677,3.5696,3.566,3.5804,3.5759,3.5816,3.5816,3.5847,3.5844,3.6004,3.5871,3.5871,3.587,3.587,0,3.5089,3.517,3.5206,3.5263,3.5353,3.5371,3.5459,3.5488,3.5534,3.5595,3.5594,3.5651,3.5674,3.5734,3.5749,3.5837,3.5853,3.5866,3.5868,3.5866,3.5864,3.5888,3.5881,3.5875,3.5874,3.5873,3.5872,0,3.52,3.5227,3.5329,3.5387,3.5403,3.5467,3.5516,3.557,3.5593,3.5672,3.5691,3.5727,3.5798,3.5822,3.5908,3.5918,3.6019,3.6016,3.6001,3.6001,3.6057,3.6051,3.6238,3.6262,3.6114,3.6115,3.6117,0,3.5282,3.5344,3.5408,3.545,3.5483,3.555,3.5593,3.5612,3.5656,3.5722,3.5768,3.5839,3.5896,3.601,3.6043,3.6108,3.6106,3.6166,3.6115,3.6109,3.6105,3.61,3.6106,3.6176,3.6177,3.6179,3.618,0,3.5424,3.5434,3.5496,3.5563,3.5615,3.5668,3.572,3.5754,3.5779,3.5829,3.5902,3.5947,3.6034,3.6103,3.6169,3.62,3.6194,3.6195,3.6212,3.6209,3.6197,3.6203,3.6026,3.6191,3.619,3.6189,3.6188,3.6188,3.5522,3.5576,3.5629,3.5699,3.5739,3.5787,3.584,3.587,3.5931,3.6004,3.6011,3.6089,3.6139,3.6228,3.6261,3.6321,3.6304,3.6328,3.6334,3.6339,3.6343,3.6188,3.6333,3.6333,3.6332,3.6332,3.6332,0,3.5663,3.5696,3.576,3.5832,3.5885,3.5875,3.5931,3.5976,3.6045,3.6093,3.6149,3.6232,3.6298,3.6336,3.6402,3.6442,3.6441,3.6459,3.6456,3.6462,3.6355,3.6334,3.6459,3.6459,3.6459,3.6459,3.6459,3.6459,3.5742,3.5833,3.5848,3.5958,3.599,3.6067,3.61,3.6143,3.6181,3.6273,3.6329,3.6353,3.6396,3.6465,3.6524,3.6534,3.6557,3.6577,3.6584,3.6483,3.647,3.6458,3.6438,3.6582,3.6582,3.6686,3.6687,3.6688]}]]